QPF
0.00 0.00 0.00 0.00 0.00 0.00 0.00 0.00 0.00 0.00 0.00 0.00 0.01 0.01 0.02 0.02 0.02 0.02 0.02 0.02 0.02 0.02 0.02 0.02 0.04 0.04 0.04 0.04 0.03 0.03 0.03 0.04 0.05 0.05 0.08 0.09 0.10 0.08 0.07 0.08 0.09 0.11 0.13 0.12
0.00 0.00 0.00 0.00 0.00 0.00 0.00 0.00 0.00 0.00 0.01 0.01 0.01 0.01 0.01 0.01 0.02 0.02 0.02 0.02 0.01 0.02 0.02 0.02 0.04 0.05 0.04 0.04 0.04 0.03 0.03 0.03 0.05 0.05 0.06 0.06 0.08 0.09 0.08 0.08 0.08 0.09 0.12 0.13
0.01 0.00 0.01 0.01 0.00 0.00 0.00 0.00 0.00 0.01 0.01 0.01 0.01 0.00 0.01 0.01 0.01 0.01 0.02 0.02 0.01 0.02 0.02 0.02 0.03 0.05 0.06 0.06 0.05 0.04 0.03 0.03 0.03 0.05 0.05 0.05 0.05 0.06 0.08 0.08 0.08 0.10 0.11 0.12
0.01 0.01 0.01 0.00 0.00 0.00 0.00 0.00 0.01 0.01 0.01 0.00 0.00 0.01 0.01 0.01 0.01 0.01 0.02 0.02 0.02 0.02 0.02 0.02 0.03 0.04 0.06 0.06 0.05 0.04 0.03 0.03 0.03 0.03 0.04 0.05 0.05 0.05 0.06 0.07 0.07 0.07 0.09 0.11
0.02 0.01 0.00 0.00 0.00 0.00 0.00 0.00 0.00 0.00 0.00 0.00 0.00 0.01 0.01 0.01 0.01 0.01 0.02 0.03 0.02 0.02 0.02 0.02 0.03 0.04 0.05 0.05 0.05 0.04 0.04 0.04 0.04 0.04 0.04 0.05 0.06 0.06 0.05 0.06 0.06 0.06 0.06 0.08
0.02 0.02 0.01 0.00 0.00 0.00 0.00 0.01 0.00 0.01 0.01 0.01 0.00 0.01 0.00 0.01 0.01 0.01 0.02 0.02 0.02 0.02 0.02 0.03 0.04 0.04 0.05 0.05 0.05 0.05 0.04 0.04 0.04 0.04 0.04 0.05 0.05 0.05 0.05 0.06 0.05 0.05 0.06 0.06
0.02 0.02 0.01 0.00 0.00 0.00 0.01 0.01 0.01 0.01 0.01 0.01 0.01 0.01 0.01 0.00 0.01 0.01 0.01 0.02 0.02 0.02 0.02 0.03 0.04 0.04 0.04 0.05 0.05 0.05 0.05 0.03 0.03 0.03 0.04 0.06 0.05 0.04 0.04 0.05 0.05 0.05 0.05 0.05
0.03 0.03 0.01 0.01 0.01 0.01 0.02 0.02 0.02 0.02 0.01 0.01 0.01 0.00 0.00 0.00 0.01 0.01 0.01 0.01 0.02 0.02 0.02 0.02 0.02 0.03 0.03 0.05 0.05 0.05 0.05 0.04 0.03 0.04 0.05 0.06 0.06 0.04 0.04 0.04 0.04 0.04 0.04 0.04
0.03 0.02 0.02 0.02 0.02 0.02 0.02 0.02 0.02 0.02 0.01 0.01 0.01 0.01 0.01 0.00 0.00 0.01 0.01 0.01 0.02 0.02 0.02 0.02 0.02 0.02 0.03 0.04 0.05 0.05 0.06 0.06 0.05 0.05 0.05 0.06 0.07 0.06 0.04 0.04 0.04 0.04 0.03 0.03
0.02 0.02 0.02 0.02 0.01 0.01 0.02 0.02 0.02 0.02 0.02 0.01 0.01 0.01 0.01 0.01 0.00 0.01 0.01 0.01 0.02 0.02 0.03 0.03 0.03 0.03 0.03 0.04 0.05 0.06 0.07 0.07 0.06 0.05 0.05 0.05 0.06 0.06 0.05 0.04 0.04 0.04 0.03 0.03
0.02 0.01 0.01 0.01 0.01 0.01 0.02 0.01 0.01 0.02 0.02 0.02 0.01 0.01 0.01 0.01 0.01 0.01 0.01 0.02 0.02 0.03 0.03 0.04 0.03 0.03 0.03 0.04 0.05 0.06 0.07 0.07 0.07 0.06 0.05 0.05 0.06 0.06 0.05 0.05 0.05 0.04 0.03 0.03
0.01 0.01 0.02 0.02 0.02 0.01 0.01 0.01 0.01 0.01 0.01 0.01 0.01 0.01 0.01 0.01 0.01 0.01 0.02 0.02 0.02 0.02 0.03 0.04 0.04 0.03 0.03 0.03 0.04 0.05 0.06 0.07 0.06 0.06 0.06 0.05 0.05 0.05 0.05 0.05 0.04 0.03 0.03 0.03
0.01 0.01 0.01 0.01 0.01 0.01 0.01 0.01 0.01 0.01 0.01 0.01 0.01 0.01 0.01 0.01 0.01 0.01 0.02 0.02 0.02 0.03 0.03 0.04 0.05 0.04 0.03 0.03 0.04 0.04 0.05 0.06 0.06 0.06 0.06 0.05 0.05 0.04 0.05 0.05 0.04 0.03 0.03 0.03
0.01 0.01 0.01 0.01 0.01 0.01 0.01 0.00 0.00 0.00 0.00 0.00 0.01 0.00 0.01 0.01 0.01 0.01 0.02 0.02 0.03 0.03 0.03 0.04 0.05 0.05 0.05 0.05 0.04 0.05 0.04 0.05 0.05 0.06 0.07 0.06 0.06 0.05 0.05 0.05 0.04 0.04 0.03 0.03
0.01 0.01 0.01 0.01 0.01 0.00 0.00 0.00 0.00 0.00 0.00 0.00 0.00 0.00 0.00 0.00 0.01 0.01 0.01 0.02 0.02 0.02 0.02 0.03 0.03 0.04 0.05 0.05 0.06 0.06 0.05 0.04 0.05 0.05 0.06 0.06 0.06 0.06 0.06 0.05 0.05 0.04 0.04 0.04
0.01 0.01 0.01 0.01 0.00 0.00 0.00 0.00 0.00 0.00 0.00 0.00 0.00 0.00 0.00 0.00 0.00 0.00 0.01 0.01 0.01 0.01 0.02 0.02 0.02 0.03 0.04 0.05 0.05 0.05 0.04 0.04 0.04 0.05 0.05 0.05 0.05 0.06 0.06 0.05 0.05 0.05 0.05 0.06
0.01 0.01 0.01 0.00 0.00 0.00 0.00 0.00 0.00 0.00 0.00 0.00 0.00 0.00 0.00 0.00 0.00 0.00 0.01 0.01 0.01 0.01 0.01 0.02 0.02 0.02 0.03 0.04 0.04 0.04 0.03 0.03 0.04 0.04 0.04 0.04 0.04 0.05 0.06 0.05 0.05 0.05 0.05 0.05
0.01 0.01 0.01 0.01 0.01 0.01 0.00 0.00 0.00 0.00 0.00 0.00 0.00 0.00 0.00 0.00 0.00 0.00 0.00 0.01 0.01 0.01 0.01 0.01 0.02 0.02 0.02 0.03 0.03 0.03 0.03 0.03 0.03 0.03 0.03 0.04 0.04 0.05 0.05 0.05 0.05 0.05 0.05 0.05
0.01 0.01 0.01 0.01 0.01 0.01 0.00 0.00 0.00 0.00 0.00 0.00 0.00 0.00 0.00 0.00 0.00 0.00 0.00 0.01 0.01 0.01 0.01 0.01 0.01 0.01 0.02 0.02 0.03 0.03 0.03 0.03 0.03 0.03 0.03 0.04 0.04 0.05 0.05 0.04 0.05 0.05 0.04 0.04
0.00 0.00 0.00 0.00 0.00 0.00 0.00 0.00 0.00 0.00 0.00 0.00 0.00 0.00 0.00 0.00 0.00 0.00 0.00 0.01 0.01 0.01 0.01 0.01 0.01 0.01 0.02 0.02 0.02 0.03 0.02 0.03 0.03 0.03 0.03 0.03 0.04 0.05 0.05 0.04 0.04 0.05 0.04 0.04
0.00 0.00 0.00 0.00 0.00 0.00 0.00 0.00 0.00 0.00 0.00 0.00 0.00 0.00 0.00 0.00 0.00 0.00 0.01 0.01 0.01 0.01 0.01 0.01 0.01 0.01 0.02 0.02 0.02 0.02 0.02 0.02 0.02 0.03 0.03 0.03 0.03 0.04 0.04 0.04 0.04 0.05 0.04 0.04
0.00 0.00 0.00 0.00 0.00 0.00 0.00 0.00 0.00 0.00 0.00 0.00 0.00 0.00 0.00 0.00 0.00 0.00 0.00 0.01 0.01 0.01 0.01 0.01 0.01 0.02 0.02 0.02 0.02 0.02 0.02 0.02 0.02 0.02 0.02 0.03 0.03 0.04 0.04 0.04 0.04 0.04 0.04 0.04
0.00 0.00 0.00 0.00 0.00 0.00 0.00 0.00 0.00 0.00 0.00 0.00 0.00 0.00 0.00 0.00 0.00 0.01 0.01 0.01 0.01 0.01 0.01 0.01 0.01 0.02 0.02 0.02 0.01 0.02 0.02 0.02 0.02 0.02 0.02 0.02 0.03 0.03 0.03 0.04 0.04 0.04 0.04 0.04
0.00 0.00 0.00 0.00 0.00 0.00 0.00 0.00 0.00 0.00 0.00 0.00 0.00 0.00 0.00 0.00 0.00 0.01 0.01 0.01 0.01 0.01 0.01 0.01 0.01 0.02 0.01 0.01 0.01 0.01 0.02 0.02 0.02 0.02 0.02 0.02 0.02 0.03 0.03 0.03 0.03 0.04 0.04 0.04
0.00 0.00 0.00 0.00 0.00 0.00 0.00 0.00 0.00 0.00 0.00 0.00 0.00 0.00 0.00 0.00 0.01 0.01 0.01 0.01 0.01 0.01 0.01 0.01 0.01 0.01 0.01 0.01 0.01 0.01 0.02 0.02 0.02 0.02 0.03 0.03 0.03 0.03 0.03 0.03 0.03 0.03 0.03 0.03
0.00 0.00 0.00 0.01 0.01 0.01 0.01 0.00 0.00 0.00 0.00 0.00 0.00 0.00 0.00 0.01 0.01 0.01 0.01 0.01 0.01 0.01 0.01 0.01 0.01 0.01 0.01 0.01 0.01 0.02 0.02 0.02 0.02 0.02 0.02 0.03 0.03 0.03 0.03 0.03 0.03 0.03 0.03 0.02
0.00 0.00 0.00 0.01 0.01 0.01 0.01 0.01 0.01 0.01 0.01 0.00 0.01 0.01 0.01 0.01 0.01 0.00 0.00 0.01 0.01 0.01 0.01 0.01 0.02 0.02 0.02 0.02 0.02 0.02 0.02 0.01 0.02 0.02 0.02 0.03 0.03 0.03 0.03 0.03 0.03 0.03 0.02 0.02
MSLP
1033.55 1033.71 1033.71 1033.55 1033.23 1032.78 1032.20 1031.53 1030.79 1030.01 1029.21 1028.43 1027.71 1027.08 1026.56 1026.18 1025.94 1025.84 1025.85 1025.94 1026.07 1026.19 1026.24 1026.19 1026.01 1025.66 1025.13 1024.41 1023.53 1022.50 1021.35 1020.10 1018.79 1017.43 1016.06 1014.69 1013.33 1011.99 1010.68 1009.42 1008.19 1007.02 1005.93 1004.93
1033.26 1033.19 1032.93 1032.49 1031.91 1031.23 1030.49 1029.72 1028.96 1028.22 1027.52 1026.87 1026.30 1025.80 1025.40 1025.10 1024.92 1024.85 1024.88 1025.01 1025.20 1025.41 1025.59 1025.71 1025.71 1025.55 1025.22 1024.67 1023.94 1023.02 1021.96 1020.78 1019.54 1018.27 1017.00 1015.76 1014.57 1013.42 1012.31 1011.24 1010.19 1009.15 1008.14 1007.16
1033.13 1032.83 1032.29 1031.58 1030.73 1029.82 1028.91 1028.04 1027.25 1026.54 1025.94 1025.42 1025.00 1024.64 1024.36 1024.15 1024.02 1023.98 1024.04 1024.19 1024.42 1024.69 1024.98 1025.22 1025.38 1025.39 1025.22 1024.83 1024.23 1023.44 1022.47 1021.38 1020.22 1019.03 1017.87 1016.77 1015.73 1014.76 1013.84 1012.95 1012.08 1011.19 1010.27 1009.34
1033.18 1032.65 1031.86 1030.88 1029.79 1028.67 1027.60 1026.64 1025.82 1025.15 1024.63 1024.23 1023.94 1023.71 1023.54 1023.41 1023.33 1023.32 1023.38 1023.53 1023.77 1024.08 1024.42 1024.75 1025.02 1025.16 1025.13 1024.89 1024.42 1023.74 1022.88 1021.89 1020.82 1019.73 1018.68 1017.69 1016.79 1015.96 1015.21 1014.48 1013.75 1012.99 1012.18 1011.30
1033.29 1032.55 1031.55 1030.36 1029.07 1027.78 1026.59 1025.56 1024.72 1024.09 1023.65 1023.36 1023.18 1023.06 1022.97 1022.91 1022.86 1022.85 1022.90 1023.03 1023.26 1023.56 1023.92 1024.30 1024.64 1024.88 1024.97 1024.85 1024.51 1023.96 1023.22 1022.33 1021.37 1020.38 1019.42 1018.54 1017.75 1017.04 1016.40 1015.79 1015.17 1014.51 1013.78 1012.97
1033.26 1032.37 1031.22 1029.87 1028.45 1027.07 1025.81 1024.75 1023.93 1023.34 1022.98 1022.77 1022.68 1022.64 1022.62 1022.60 1022.57 1022.55 1022.57 1022.66 1022.84 1023.12 1023.47 1023.87 1024.25 1024.56 1024.74 1024.74 1024.52 1024.10 1023.49 1022.73 1021.88 1021.00 1020.14 1019.35 1018.64 1018.01 1017.44 1016.90 1016.35 1015.75 1015.08 1014.32
1032.89 1031.91 1030.67 1029.26 1027.80 1026.39 1025.14 1024.11 1023.34 1022.82 1022.52 1022.39 1022.38 1022.40 1022.42 1022.41 1022.38 1022.34 1022.32 1022.36 1022.49 1022.73 1023.05 1023.44 1023.84 1024.20 1024.46 1024.56 1024.47 1024.18 1023.71 1023.09 1022.37 1021.60 1020.84 1020.12 1019.47 1018.88 1018.35 1017.84 1017.32 1016.75 1016.11 1015.39
1032.03 1031.02 1029.78 1028.39 1026.98 1025.63 1024.46 1023.52 1022.84 1022.41 1022.19 1022.14 1022.17 1022.24 1022.29 1022.29 1022.24 1022.17 1022.11 1022.10 1022.17 1022.36 1022.64 1023.01 1023.42 1023.81 1024.13 1024.32 1024.35 1024.19 1023.87 1023.39 1022.80 1022.15 1021.49 1020.85 1020.24 1019.68 1019.16 1018.65 1018.12 1017.56 1016.93 1016.23
1030.65 1029.67 1028.50 1027.22 1025.94 1024.74 1023.72 1022.92 1022.36 1022.04 1021.92 1021.93 1022.02 1022.11 1022.18 1022.17 1022.11 1022.01 1021.91 1021.86 1021.88 1022.01 1022.26 1022.60 1023.00 1023.40 1023.77 1024.03 1024.16 1024.13 1023.94 1023.61 1023.16 1022.63 1022.06 1021.49 1020.93 1020.39 1019.87 1019.35 1018.81 1018.23 1017.60 1016.91
1028.85 1027.95 1026.92 1025.82 1024.73 1023.74 1022.92 1022.30 1021.90 1021.71 1021.68 1021.76 1021.89 1022.01 1022.08 1022.08 1022.00 1021.88 1021.75 1021.66 1021.64 1021.73 1021.93 1022.22 1022.60 1023.01 1023.39 1023.71 1023.91 1023.98 1023.91 1023.71 1023.38 1022.97 1022.51 1022.01 1021.50 1020.99 1020.47 1019.94 1019.39 1018.81 1018.18 1017.52
1026.83 1026.07 1025.22 1024.33 1023.49 1022.74 1022.14 1021.73 1021.50 1021.43 1021.50 1021.64 1021.81 1021.95 1022.03 1022.02 1021.94 1021.82 1021.67 1021.55 1021.50 1021.54 1021.69 1021.94 1022.27 1022.65 1023.03 1023.37 1023.62 1023.76 1023.78 1023.68 1023.46 1023.16 1022.79 1022.37 1021.92 1021.45 1020.96 1020.45 1019.90 1019.33 1018.72 1018.08
1024.89 1024.29 1023.64 1022.99 1022.39 1021.89 1021.52 1021.30 1021.22 1021.27 1021.42 1021.62 1021.81 1021.97 1022.05 1022.06 1021.98 1021.86 1021.70 1021.57 1021.49 1021.49 1021.59 1021.79 1022.06 1022.38 1022.73 1023.04 1023.30 1023.48 1023.55 1023.53 1023.40 1023.19 1022.91 1022.57 1022.19 1021.78 1021.33 1020.85 1020.34 1019.80 1019.23 1018.64
1023.27 1022.82 1022.38 1021.95 1021.59 1021.31 1021.13 1021.07 1021.12 1021.26 1021.47 1021.70 1021.91 1022.08 1022.18 1022.19 1022.13 1022.02 1021.87 1021.74 1021.64 1021.61 1021.65 1021.78 1021.98 1022.23 1022.51 1022.78 1023.02 1023.19 1023.29 1023.31 1023.24 1023.11 1022.90 1022.64 1022.34 1021.99 1021.61 1021.19 1020.74 1020.25 1019.73 1019.19
1022.13 1021.82 1021.55 1021.31 1021.13 1021.02 1020.99 1021.05 1021.19 1021.38 1021.62 1021.86 1022.08 1022.26 1022.37 1022.40 1022.37 1022.28 1022.16 1022.02 1021.92 1021.86 1021.85 1021.92 1022.04 1022.21 1022.41 1022.61 1022.80 1022.94 1023.04 1023.08 1023.06 1022.98 1022.84 1022.65 1022.42 1022.15 1021.83 1021.48 1021.09 1020.67 1020.22 1019.74
1021.48 1021.29 1021.14 1021.04 1020.98 1020.98 1021.05 1021.17 1021.34 1021.56 1021.80 1022.04 1022.26 1022.44 1022.57 1022.63 1022.63 1022.57 1022.48 1022.37 1022.26 1022.18 1022.14 1022.15 1022.20 1022.29 1022.41 1022.54 1022.67 1022.79 1022.87 1022.92 1022.92 1022.88 1022.79 1022.66 1022.50 1022.29 1022.04 1021.76 1021.43 1021.07 1020.68 1020.26
1021.23 1021.11 1021.04 1021.01 1021.02 1021.07 1021.17 1021.30 1021.47 1021.67 1021.90 1022.13 1022.34 1022.53 1022.68 1022.77 1022.82 1022.81 1022.75 1022.68 1022.59 1022.50 1022.44 1022.40 1022.40 1022.43 1022.48 1022.56 1022.64 1022.73 1022.80 1022.84 1022.87 1022.86 1022.81 1022.73 1022.61 1022.46 1022.26 1022.03 1021.75 1021.44 1021.09 1020.71
1021.20 1021.12 1021.08 1021.07 1021.09 1021.14 1021.21 1021.32 1021.46 1021.63 1021.82 1022.04 1022.25 1022.45 1022.62 1022.76 1022.85 1022.89 1022.89 1022.85 1022.79 1022.71 1022.64 1022.59 1022.55 1022.55 1022.57 1022.61 1022.67 1022.74 1022.81 1022.86 1022.90 1022.92 1022.90 1022.86 1022.77 1022.65 1022.48 1022.28 1022.03 1021.75 1021.42 1021.06
1021.20 1021.11 1021.06 1021.04 1021.03 1021.04 1021.07 1021.13 1021.23 1021.36 1021.52 1021.71 1021.93 1022.14 1022.34 1022.52 1022.66 1022.76 1022.81 1022.82 1022.79 1022.74 1022.69 1022.63 1022.59 1022.58 1022.59 1022.63 1022.69 1022.76 1022.84 1022.92 1022.98 1023.02 1023.03 1023.00 1022.94 1022.83 1022.67 1022.48 1022.24 1021.95 1021.63 1021.27
1021.06 1020.96 1020.88 1020.82 1020.77 1020.73 1020.71 1020.72 1020.76 1020.86 1021.00 1021.18 1021.39 1021.63 1021.86 1022.08 1022.26 1022.41 1022.51 1022.56 1022.57 1022.55 1022.51 1022.48 1022.45 1022.45 1022.48 1022.53 1022.61 1022.71 1022.82 1022.93 1023.02 1023.08 1023.11 1023.09 1023.03 1022.92 1022.76 1022.55 1022.30 1022.01 1021.67 1021.30
1020.72 1020.60 1020.50 1020.40 1020.30 1020.22 1020.16 1020.13 1020.14 1020.21 1020.33 1020.51 1020.74 1020.98 1021.24 1021.49 1021.71 1021.89 1022.02 1022.10 1022.14 1022.14 1022.13 1022.11 1022.11 1022.13 1022.18 1022.27 1022.38 1022.52 1022.66 1022.80 1022.92 1023.00 1023.05 1023.04 1022.97 1022.85 1022.68 1022.46 1022.19 1021.87 1021.52 1021.13
1020.19 1020.07 1019.96 1019.84 1019.73 1019.62 1019.53 1019.48 1019.48 1019.54 1019.66 1019.84 1020.07 1020.33 1020.60 1020.86 1021.10 1021.29 1021.43 1021.52 1021.57 1021.58 1021.58 1021.58 1021.59 1021.63 1021.71 1021.82 1021.97 1022.14 1022.31 1022.48 1022.62 1022.72 1022.78 1022.77 1022.70 1022.57 1022.39 1022.15 1021.86 1021.54 1021.17 1020.77
1019.55 1019.46 1019.36 1019.26 1019.14 1019.04 1018.95 1018.90 1018.90 1018.96 1019.08 1019.27 1019.50 1019.76 1020.03 1020.29 1020.52 1020.70 1020.83 1020.91 1020.95 1020.95 1020.94 1020.94 1020.96 1021.01 1021.09 1021.22 1021.39 1021.58 1021.77 1021.95 1022.11 1022.22 1022.28 1022.28 1022.21 1022.07 1021.88 1021.64 1021.35 1021.02 1020.65 1020.25
1018.91 1018.87 1018.81 1018.74 1018.66 1018.58 1018.51 1018.48 1018.49 1018.56 1018.69 1018.87 1019.10 1019.35 1019.60 1019.84 1020.04 1020.20 1020.30 1020.35 1020.36 1020.34 1020.31 1020.29 1020.29 1020.33 1020.41 1020.54 1020.70 1020.89 1021.09 1021.27 1021.43 1021.54 1021.61 1021.60 1021.53 1021.40 1021.21 1020.97 1020.68 1020.36 1019.99 1019.60
1018.35 1018.38 1018.38 1018.36 1018.32 1018.28 1018.25 1018.24 1018.28 1018.36 1018.50 1018.67 1018.89 1019.12 1019.34 1019.55 1019.71 1019.83 1019.90 1019.91 1019.88 1019.82 1019.76 1019.71 1019.69 1019.70 1019.76 1019.87 1020.01 1020.18 1020.36 1020.54 1020.68 1020.79 1020.84 1020.83 1020.77 1020.63 1020.45 1020.21 1019.93 1019.61 1019.25 1018.86
1017.92 1018.02 1018.08 1018.12 1018.13 1018.14 1018.14 1018.17 1018.22 1018.32 1018.46 1018.63 1018.83 1019.03 1019.23 1019.39 1019.52 1019.60 1019.63 1019.60 1019.54 1019.45 1019.36 1019.28 1019.22 1019.21 1019.23 1019.31 1019.42 1019.56 1019.71 1019.86 1019.98 1020.06 1020.10 1020.08 1020.00 1019.87 1019.67 1019.43 1019.14 1018.81 1018.44 1018.04
1017.61 1017.77 1017.89 1017.98 1018.04 1018.08 1018.13 1018.18 1018.26 1018.36 1018.50 1018.67 1018.85 1019.03 1019.20 1019.34 1019.44 1019.49 1019.49 1019.44 1019.36 1019.25 1019.14 1019.03 1018.95 1018.91 1018.90 1018.94 1019.02 1019.12 1019.23 1019.34 1019.42 1019.47 1019.48 1019.43 1019.33 1019.17 1018.95 1018.67 1018.35 1017.98 1017.56 1017.10
1017.40 1017.60 1017.76 1017.89 1017.98 1018.06 1018.13 1018.20 1018.30 1018.42 1018.56 1018.73 1018.90 1019.07 1019.23 1019.35 1019.44 1019.48 1019.47 1019.42 1019.33 1019.22 1019.10 1018.99 1018.90 1018.83 1018.81 1018.81 1018.85 1018.90 1018.97 1019.03 1019.06 1019.07 1019.03 1018.93 1018.78 1018.56 1018.28 1017.93 1017.53 1017.07 1016.56 1016.00
Thickness
5373 5376 5369 5368 5367 5356 5348 5346 5346 5356 5354 5370 5364 5357 5354 5352 5350 5349 5349 5348 5346 5345 5345 5346 5349 5351 5353 5355 5358 5361 5363 5367 5372 5376 5381 5385 5390 5395 5400 5403 5409 5414 5418 5422
5361 5368 5363 5363 5365 5356 5350 5345 5342 5345 5352 5361 5353 5347 5345 5343 5342 5342 5341 5340 5338 5337 5336 5338 5338 5340 5342 5344 5347 5349 5352 5355 5359 5363 5368 5373 5378 5383 5388 5392 5397 5401 5405 5409
5352 5351 5352 5355 5361 5352 5344 5340 5337 5341 5352 5349 5343 5342 5339 5336 5334 5333 5332 5330 5329 5328 5327 5328 5329 5330 5331 5333 5335 5337 5340 5343 5346 5350 5355 5360 5366 5371 5376 5380 5384 5389 5393 5398
5335 5335 5345 5369 5356 5349 5343 5339 5332 5336 5338 5335 5335 5332 5329 5327 5323 5322 5322 5321 5319 5318 5318 5319 5320 5321 5322 5323 5324 5326 5328 5331 5335 5339 5343 5349 5354 5359 5363 5368 5372 5377 5383 5386
5322 5318 5333 5354 5349 5338 5333 5336 5333 5329 5330 5327 5324 5323 5323 5321 5317 5313 5312 5310 5309 5308 5309 5310 5311 5312 5312 5314 5315 5317 5319 5322 5326 5329 5333 5338 5343 5347 5351 5356 5361 5365 5371 5375
5309 5313 5328 5351 5340 5331 5328 5327 5331 5322 5320 5316 5312 5312 5317 5314 5309 5305 5303 5301 5300 5300 5300 5302 5303 5303 5303 5305 5306 5308 5311 5314 5317 5320 5324 5328 5332 5336 5340 5345 5350 5354 5359 5364
5300 5300 5319 5331 5324 5323 5320 5329 5325 5316 5312 5306 5302 5303 5304 5301 5299 5297 5295 5293 5292 5291 5292 5293 5294 5294 5295 5296 5298 5300 5303 5305 5308 5311 5315 5319 5323 5326 5330 5334 5339 5343 5348 5353
5291 5291 5315 5323 5314 5313 5319 5317 5311 5307 5304 5300 5297 5294 5293 5291 5289 5288 5286 5284 5283 5283 5283 5284 5284 5285 5286 5287 5290 5292 5294 5297 5300 5303 5306 5310 5313 5316 5320 5323 5327 5332 5337 5342
5308 5322 5324 5313 5312 5311 5307 5304 5302 5299 5296 5292 5288 5285 5284 5282 5279 5278 5276 5275 5274 5274 5275 5276 5276 5276 5277 5279 5281 5284 5286 5288 5291 5294 5297 5300 5304 5307 5309 5313 5316 5321 5325 5330
5303 5311 5310 5305 5302 5300 5296 5294 5292 5288 5285 5282 5279 5277 5274 5273 5271 5268 5268 5266 5266 5265 5266 5268 5268 5269 5269 5271 5272 5274 5276 5278 5281 5284 5287 5290 5293 5297 5299 5302 5305 5309 5314 5319
5299 5303 5301 5302 5297 5295 5290 5286 5282 5279 5276 5274 5271 5269 5266 5264 5262 5260 5260 5259 5258 5257 5258 5259 5260 5260 5261 5262 5264 5265 5267 5269 5271 5274 5276 5279 5282 5285 5288 5292 5295 5299 5303 5308
5306 5304 5298 5298 5294 5288 5283 5279 5275 5271 5269 5266 5264 5261 5259 5257 5254 5252 5252 5251 5251 5250 5251 5251 5251 5252 5253 5254 5255 5256 5258 5260 5261 5263 5266 5269 5271 5274 5277 5281 5285 5287 5291 5296
5301 5296 5291 5289 5284 5280 5275 5272 5268 5265 5262 5259 5257 5254 5251 5249 5248 5246 5245 5244 5243 5243 5243 5242 5243 5244 5245 5246 5247 5248 5248 5250 5251 5254 5256 5258 5261 5264 5267 5270 5274 5277 5280 5284
5288 5284 5282 5279 5275 5271 5268 5265 5261 5257 5254 5252 5249 5247 5244 5242 5240 5238 5237 5236 5236 5235 5235 5235 5235 5236 5237 5238 5239 5240 5240 5241 5243 5244 5246 5248 5250 5252 5255 5259 5262 5265 5268 5272
5280 5277 5274 5271 5266 5263 5259 5255 5252 5249 5246 5244 5242 5239 5237 5235 5233 5231 5230 5229 5228 5228 5227 5227 5228 5228 5229 5230 5231 5231 5232 5233 5234 5235 5237 5239 5241 5243 5245 5247 5250 5254 5258 5260
5272 5269 5265 5262 5259 5255 5250 5246 5243 5241 5238 5236 5234 5232 5230 5227 5225 5224 5222 5221 5220 5220 5220 5219 5220 5221 5221 5222 5222 5223 5223 5225 5227 5227 5229 5231 5232 5234 5235 5237 5240 5244 5247 5250
5263 5261 5257 5254 5251 5247 5243 5239 5236 5234 5231 5229 5227 5225 5223 5220 5218 5217 5215 5213 5212 5211 5212 5212 5213 5214 5214 5214 5214 5214 5215 5216 5219 5220 5220 5222 5223 5224 5226 5228 5231 5234 5236 5240
5258 5255 5251 5247 5244 5240 5237 5233 5230 5227 5225 5222 5220 5218 5215 5213 5211 5210 5208 5206 5205 5205 5206 5206 5206 5207 5207 5208 5207 5207 5208 5208 5210 5210 5212 5213 5214 5215 5218 5220 5222 5224 5227 5229
5251 5248 5244 5241 5238 5234 5231 5227 5224 5221 5219 5216 5214 5211 5209 5207 5205 5203 5201 5199 5199 5198 5200 5200 5201 5200 5200 5201 5201 5200 5200 5201 5202 5202 5203 5205 5206 5208 5209 5211 5213 5215 5217 5219
5244 5241 5238 5235 5232 5228 5224 5221 5218 5215 5213 5210 5208 5205 5203 5201 5199 5196 5194 5193 5193 5192 5194 5194 5194 5193 5193 5193 5194 5193 5192 5193 5193 5194 5195 5196 5197 5199 5201 5203 5205 5206 5207 5209
5237 5234 5231 5228 5224 5221 5218 5215 5212 5210 5207 5204 5201 5199 5198 5196 5193 5191 5189 5189 5189 5188 5188 5189 5188 5187 5187 5187 5187 5186 5186 5186 5186 5186 5187 5188 5189 5190 5191 5193 5195 5197 5198 5199
5230 5227 5224 5221 5217 5214 5212 5209 5207 5204 5201 5198 5196 5194 5192 5190 5188 5186 5184 5183 5184 5184 5183 5182 5182 5182 5182 5182 5181 5180 5180 5179 5179 5179 5179 5179 5181 5182 5183 5185 5186 5188 5189 5190
5224 5221 5218 5215 5211 5208 5205 5203 5201 5199 5196 5194 5191 5189 5187 5184 5182 5180 5180 5179 5178 5178 5177 5176 5176 5177 5177 5176 5175 5174 5174 5173 5173 5173 5173 5173 5174 5175 5176 5178 5179 5180 5181 5182
5217 5214 5211 5208 5204 5201 5199 5198 5195 5193 5191 5189 5187 5184 5181 5179 5177 5175 5174 5174 5173 5172 5170 5170 5171 5171 5171 5170 5169 5169 5168 5168 5168 5168 5168 5168 5169 5169 5170 5171 5172 5173 5174 5175
5211 5207 5204 5201 5199 5197 5195 5192 5189 5187 5185 5183 5182 5179 5177 5174 5172 5171 5169 5168 5168 5167 5165 5164 5164 5164 5163 5163 5163 5163 5163 5163 5164 5164 5164 5164 5164 5164 5164 5165 5165 5166 5168 5169
5204 5201 5199 5196 5194 5192 5189 5187 5184 5182 5180 5178 5176 5174 5172 5170 5168 5166 5164 5163 5161 5161 5159 5157 5156 5157 5157 5156 5157 5157 5158 5158 5158 5158 5158 5158 5158 5158 5158 5159 5160 5161 5162 5163
5199 5196 5194 5191 5190 5187 5184 5181 5179 5177 5175 5173 5171 5169 5167 5165 5163 5160 5158 5157 5155 5154 5153 5152 5151 5151 5151 5151 5151 5152 5152 5153 5153 5153 5153 5153 5153 5153 5153 5154 5155 5156 5156 5158